Flag for Germany Weather past 2 weeks in Heinsberg, North Rhine-Westphalia, Germany

Now
37 °F

Broken clouds.


Feels Like: 29 °F
Forecast: 32 / 38 °F
Wind: 13 mph from Southwest

Location: Geilenkirchen Airport

Current Time: Jan 29, 2015 at 9:46:24 AM

Latest Report: Jan 29, 2015 at 8:50 AM


Visibility: N/A

Pressure: 29.30 "Hg

Humidity: 81%

Dew point: 32 °F

Location of HeinsbergLocation

Historic Weather in Heinsberg — Graph

°F

Heinsberg temperature yesterday

Maximum temperature yesterday: 45 °F (at 12:50 PM)
Minimum temperature yesterday: 37 °F (at 6:50 PM)
Average temperature yesterday: 41 °F

Past Weeks' High & Low Weather Summary

 TemperatureHumidityPressure
High52 °F (Jan 15, 10:50 AM)100% (Jan 19, 7:50 AM)30.39 "Hg (Jan 19, 7:50 AM)
Low27 °F (Jan 19, 5:50 AM)62% (Jan 15, 2:50 PM)29.30 "Hg (Jan 29, 8:50 AM)
Average37 °F85%29.92 "Hg
* Reported Jan 14 8:50 AM — Jan 29 8:50 AM, Heinsberg, Weather by CustomWeather, © 2014

Note: Actual official high and low records may vary slightly from our data, if they occured in-between our weather recording intervals... More about our weather records

Advertising

Heinsberg weather history for previous 24 hours

 ConditionsComfort  
Time TempWeatherWind HumidityBarometerVisibility
8:50 AM
Jan 29
37 °FBroken clouds.13 mph81%29.30 "HgN/A
7:50 AM37 °FPartly cloudy.17 mph81%29.33 "HgN/A
6:50 AM37 °FPassing clouds.15 mph75%29.33 "HgN/A
5:50 AM37 °FPassing clouds.13 mph75%29.36 "HgN/A
4:50 AM36 °FClear.12 mph81%29.39 "Hg10 mi
3:50 AM36 °FClear.13 mph75%29.42 "Hg10 mi
2:50 AM36 °FClear.14 mph75%29.45 "Hg10 mi
1:50 AM36 °FClear.14 mph75%29.47 "Hg10 mi
12:50 AM37 °FClear.17 mph75%29.50 "Hg10 mi
11:50 PM
Jan 28
37 °FPassing clouds.17 mph75%29.50 "HgN/A
10:50 PM37 °FPassing clouds.14 mph81%29.50 "HgN/A
9:50 PM37 °FClear.15 mph81%29.50 "Hg10 mi
8:50 PM37 °FPassing clouds.15 mph87%29.50 "HgN/A
7:50 PM39 °FPartly cloudy.12 mph93%29.50 "HgN/A
6:50 PM37 °FSprinkles. Mostly cloudy.18 mph93%29.50 "HgN/A
5:50 PM45 °FLight rain. Mostly cloudy.20 mph87%29.42 "Hg5 mi
4:50 PM43 °FRain. Mostly cloudy.18 mph87%29.45 "Hg2 mi
3:50 PM43 °FLight rain. Mostly cloudy.21 mph81%29.50 "Hg4 mi
2:50 PM45 °FPartly sunny.18 mph71%29.56 "HgN/A
1:50 PM45 °FPartly sunny.18 mph71%29.62 "HgN/A
12:50 PM45 °FPartly sunny.22 mph76%29.71 "HgN/A
11:50 AM43 °FPartly sunny.16 mph76%29.80 "HgN/A
10:50 AM43 °FPartly sunny.16 mph81%29.83 "HgN/A
9:50 AM43 °FPartly sunny.13 mph76%29.89 "HgN/A
Weather by CustomWeather, © 2014

See weather overviewHow to use our weather pages